{"data":{"norad_id":61618,"intl_designator":"2024-190B","name":"YAOGAN-43 03B","alt_names":[],"object_type":"PAYLOAD","status":"ACTIVE","operator":null,"country":"PRC","launch_date":"2024-10-23","launch_site_code":"XICLF","launch_vehicle":null,"mission":null,"orbit_class":"UNKNOWN","rcs_meters":null,"size_class":null,"mass_kg":null,"dimensions":null,"purposes":[],"wikipedia_slug":null,"has_3d_model":false,"image_url":null,"decayed_at":null,"tle_current":{"epoch":"2026-09-22T12:35:38.978880Z","epoch_age_seconds":122425,"freshness":"FRESH","line1":"1 61618U 24190B   26265.52475670  .00004854  00000+0  20314-3 0  9998","line2":"2 61618  34.9890 305.3811 0007021 186.5266 173.5358 15.22937962106715","mean_motion":15.22937962,"eccentricity":0.0007021,"inclination_deg":34.989,"raan_deg":305.3811,"arg_perigee_deg":186.5266,"mean_anomaly_deg":173.5358,"bstar":0.00020314,"rev_number":10671,"period_min":94.554081382863,"perigee_km":492.15729991291,"apogee_km":501.81134527409,"semimajor_km":6875.1213225935,"source":"CELESTRAK","updated_at":"2026-09-23T09:00:20.956735Z"}}}